Weather History for Warsaw, IN

Change the Weather History Date:

Tuesday, February 5, 2013

  Actual Average Record
Temperature  
Mean Temperature 22 °F -  
Max Temperature 32 °F 31 °F 56 °F (1962)
Min Temperature 12 °F 14 °F -14 °F (1979)
Degree Days  
Heating Degree Days 43    
Moisture  
Dew Point 22 °F    
Average Humidity 88    
Maximum Humidity 100    
Minimum Humidity 69    
Precipitation  
Precipitation 0.01 in - - ()
Sea Level Pressure  
Sea Level Pressure 29.90 in    
Wind  
Wind Speed 3 mph (WSW)    
Max Wind Speed 14 mph    
Max Gust Speed 18 mph    
Visibility 4 miles    
Events Fog , Snow    
Averages and records for this station are not official NWS values.
T = Trace of Precipitation, MM = Missing Value Source: NWS Daily Summary

Daily Weather History Graph

Daily Weather History Graph

Search for Another Location

Airport:

Trip Planner

Search our weather history database for the weather conditions in past years. The results will help you decide how hot, cold, wet, or windy it might be!

Date:

Astronomy

Feb. 05, 2013 Rise Set
Actual Time 7:50 AM EST 6:05 PM EST
Civil Twilight 7:21 AM EST 6:34 PM EST
Nautical Twilight 6:48 AM EST 7:06 PM EST
Astronomical Twilight 6:16 AM EST 7:39 PM EST
Moon 3:32 AM EST (2/5) 1:20 PM EST (2/5)
Length of Visible Light 11h 13m
Length of Day
10h 15m
Waning Crescent, 27% of the Moon is Illuminated
Feb 5
Waning Crescent
Feb 10
New
Feb 17
First Quarter
Feb 25
Full
Mar 4
Last Quarter

Hourly Weather History & Observations

Time (EST) Temp. Windchill Dew Point Humidity Pressure Visibility Wind Dir Wind Speed Gust Speed Precip Events Conditions
12:15 AM 23.0 °F - 21.2 °F 93% 29.90 in 7.0 mi Calm Calm - N/A   Scattered Clouds
12:35 AM 21.2 °F 16.4 °F 19.4 °F 93% 29.91 in 5.0 mi North 3.5 mph - N/A   Scattered Clouds
12:55 AM 21.2 °F - 19.4 °F 93% 29.91 in 5.0 mi Calm Calm - N/A   Mostly Cloudy
1:15 AM 21.2 °F 16.4 °F 19.4 °F 93% 29.91 in 5.0 mi North 3.5 mph - N/A   Mostly Cloudy
1:35 AM 21.2 °F 16.4 °F 19.4 °F 93% 29.91 in 5.0 mi North 3.5 mph - N/A   Mostly Cloudy
1:55 AM 21.2 °F - 19.4 °F 93% 29.92 in 5.0 mi Calm Calm - N/A   Scattered Clouds
2:15 AM 21.2 °F - 19.4 °F 93% 29.93 in 4.0 mi Calm Calm - N/A   Clear
2:35 AM 19.4 °F - 17.6 °F 93% 29.92 in 3.0 mi Calm Calm - N/A   Scattered Clouds
2:55 AM 19.4 °F - 17.6 °F 93% 29.92 in 2.5 mi Calm Calm - N/A   Mostly Cloudy
3:15 AM 19.4 °F - 17.6 °F 93% 29.92 in 2.5 mi Calm Calm - N/A   Mostly Cloudy
3:35 AM 17.6 °F - 15.8 °F 93% 29.92 in 3.0 mi Calm Calm - N/A   Mostly Cloudy
3:55 AM 17.6 °F - 17.6 °F 100% 29.92 in 3.0 mi Calm Calm - N/A   Overcast
4:15 AM 17.6 °F - 15.8 °F 93% 29.91 in 3.0 mi Calm Calm - N/A   Overcast
4:35 AM 19.4 °F - 17.6 °F 93% 29.91 in 3.0 mi Calm Calm - N/A   Overcast
4:55 AM 17.6 °F - 17.6 °F 100% 29.91 in 4.0 mi Calm Calm - N/A   Overcast
5:15 AM 17.6 °F - 14.0 °F 86% 29.90 in 3.0 mi Calm Calm - N/A   Overcast
5:35 AM 17.6 °F - 15.8 °F 93% 29.90 in 3.0 mi Calm Calm - N/A   Scattered Clouds
5:55 AM 17.6 °F - 15.8 °F 93% 29.90 in 3.0 mi Calm Calm - N/A   Clear
6:15 AM 17.6 °F - 17.6 °F 100% 29.92 in 2.0 mi Calm Calm - N/A   Mostly Cloudy
6:35 AM 17.6 °F - 15.8 °F 93% 29.92 in 0.8 mi Calm Calm - N/A   Overcast
6:55 AM 14.0 °F - 12.2 °F 93% 29.91 in 0.2 mi Calm Calm - N/A Fog Light Freezing Fog
7:15 AM 12.2 °F - 10.4 °F 92% 29.91 in 1.2 mi Calm Calm - N/A   Scattered Clouds
7:35 AM 12.2 °F - 12.2 °F 100% 29.92 in 1.2 mi Calm Calm - N/A   Scattered Clouds
7:55 AM 14.0 °F - 12.2 °F 93% 29.92 in 1.0 mi Calm Calm - N/A Snow Light Snow
8:15 AM 17.6 °F - 17.6 °F 100% 29.92 in 0.2 mi Calm Calm - N/A Fog Light Freezing Fog
8:35 AM 19.4 °F - 17.6 °F 93% 29.93 in 0.2 mi Calm Calm - N/A Fog Light Freezing Fog
8:55 AM 19.4 °F - 17.6 °F 93% 29.93 in 0.5 mi Calm Calm - N/A Fog Light Freezing Fog
9:15 AM 19.4 °F - 17.6 °F 93% 29.92 in 0.8 mi Calm Calm - N/A Snow Light Snow
9:35 AM 21.2 °F - 19.4 °F 93% 29.92 in 0.5 mi Calm Calm - N/A Fog Light Freezing Fog
9:55 AM 21.2 °F 14.9 °F 19.4 °F 93% 29.91 in 1.5 mi South 4.6 mph - N/A   Overcast
10:15 AM 21.2 °F 14.9 °F 21.2 °F 100% 29.91 in 1.2 mi SSW 4.6 mph - N/A   Mostly Cloudy
10:35 AM 23.0 °F 15.8 °F 21.2 °F 93% 29.90 in 2.5 mi South 5.8 mph - N/A   Mostly Cloudy
10:55 AM 23.0 °F 17.0 °F 23.0 °F 100% 29.90 in 3.0 mi South 4.6 mph - N/A   Overcast
11:15 AM 24.8 °F 16.9 °F 23.0 °F 93% 29.89 in 4.0 mi SSW 6.9 mph - N/A   Overcast
11:35 AM 24.8 °F 17.9 °F 23.0 °F 93% 29.88 in 4.0 mi South 5.8 mph - N/A   Scattered Clouds
11:55 AM 26.6 °F 20.0 °F 23.0 °F 86% 29.88 in 5.0 mi SSW 5.8 mph - N/A   Scattered Clouds
12:15 PM 28.4 °F 21.2 °F 21.2 °F 74% 29.87 in 5.0 mi SSW 6.9 mph - N/A   Haze
12:35 PM 28.4 °F 21.2 °F 21.2 °F 74% 29.86 in 5.0 mi South 6.9 mph - N/A   Haze
12:55 PM 28.4 °F 22.2 °F 21.2 °F 74% 29.85 in 5.0 mi South 5.8 mph - N/A   Haze
1:15 PM 28.4 °F 20.4 °F 21.2 °F 74% 29.84 in 7.0 mi South 8.1 mph - N/A   Scattered Clouds
1:35 PM 30.2 °F 22.6 °F 21.2 °F 69% 29.83 in 7.0 mi South 8.1 mph - N/A   Mostly Cloudy
1:55 PM 30.2 °F 25.4 °F 21.2 °F 69% 29.82 in 10.0 mi SSW 4.6 mph - N/A   Overcast
2:15 PM 30.2 °F 21.9 °F 21.2 °F 69% 29.81 in 10.0 mi SSW 9.2 mph - N/A   Overcast
2:35 PM 30.2 °F 23.4 °F 21.2 °F 69% 29.81 in 10.0 mi SSW 6.9 mph - N/A   Overcast
2:55 PM 30.2 °F 23.4 °F 21.2 °F 69% 29.80 in 10.0 mi SSW 6.9 mph - N/A   Overcast
3:15 PM 30.2 °F 23.4 °F 21.2 °F 69% 29.81 in 10.0 mi SW 6.9 mph - N/A   Overcast
3:35 PM 30.2 °F 21.9 °F 21.2 °F 69% 29.81 in 5.0 mi SW 9.2 mph - N/A Snow Light Snow
3:55 PM 32.0 °F 23.6 °F 23.0 °F 69% 29.81 in 7.0 mi WSW 10.4 mph 17.3 mph N/A Snow Light Snow
4:15 PM 30.2 °F 21.3 °F 23.0 °F 75% 29.82 in 2.5 mi WSW 10.4 mph - N/A Snow Light Snow
4:35 PM 30.2 °F 21.9 °F 26.6 °F 86% 29.84 in 0.8 mi West 9.2 mph - N/A Snow Light Snow
4:55 PM 28.4 °F 22.2 °F 26.6 °F 93% 29.84 in 1.0 mi WSW 5.8 mph - N/A Snow Light Snow
5:15 PM 30.2 °F 24.3 °F 28.4 °F 93% 29.84 in 1.2 mi WSW 5.8 mph - N/A Snow Light Snow
5:35 PM 30.2 °F 24.3 °F 28.4 °F 93% 29.85 in 0.8 mi WSW 5.8 mph - N/A Snow Light Snow
5:55 PM 30.2 °F 25.4 °F 28.4 °F 93% 29.85 in 1.2 mi WSW 4.6 mph - N/A Snow Light Snow
6:15 PM 30.2 °F 24.3 °F 28.4 °F 93% 29.86 in 1.0 mi WSW 5.8 mph - N/A Snow Light Snow
6:35 PM 30.2 °F 25.4 °F 28.4 °F 93% 29.87 in 4.0 mi West 4.6 mph - N/A   Overcast
6:55 PM 30.2 °F 23.4 °F 28.4 °F 93% 29.88 in 4.0 mi West 6.9 mph - N/A   Overcast
7:15 PM 30.2 °F 23.4 °F 28.4 °F 93% 29.88 in 5.0 mi WSW 6.9 mph - N/A   Overcast
7:35 PM 30.2 °F 21.3 °F 28.4 °F 93% 29.89 in 5.0 mi West 10.4 mph - 0.01 in   Overcast
7:55 PM 30.2 °F 21.3 °F 28.4 °F 93% 29.90 in 7.0 mi West 10.4 mph - 0.01 in   Overcast
8:15 PM 30.2 °F 19.8 °F 28.4 °F 93% 29.91 in 7.0 mi West 13.8 mph - N/A   Overcast
8:35 PM 30.2 °F 20.8 °F 28.4 °F 93% 29.92 in 7.0 mi WNW 11.5 mph - N/A   Overcast
9:15 PM 30.2 °F 19.8 °F 26.6 °F 86% 29.94 in 7.0 mi WNW 13.8 mph - N/A   Overcast
9:35 PM 30.2 °F 20.2 °F 26.6 °F 86% 29.95 in 5.0 mi WNW 12.7 mph - N/A   Overcast
9:55 PM 30.2 °F 20.2 °F 26.6 °F 86% 29.96 in 5.0 mi WNW 12.7 mph 17.3 mph N/A   Overcast
10:15 PM 30.2 °F 19.8 °F 26.6 °F 86% 29.97 in 5.0 mi NW 13.8 mph 18.4 mph N/A   Overcast
10:35 PM 30.2 °F 20.2 °F 26.6 °F 86% 29.98 in 5.0 mi NW 12.7 mph - N/A   Overcast
10:55 PM 30.2 °F 20.8 °F 26.6 °F 86% 29.98 in 5.0 mi NW 11.5 mph - N/A   Overcast
11:15 PM 30.2 °F 21.3 °F 26.6 °F 86% 29.99 in 5.0 mi WNW 10.4 mph - N/A   Overcast
11:35 PM 30.2 °F 21.3 °F 26.6 °F 86% 30.00 in 7.0 mi WNW 10.4 mph - N/A   Overcast
11:55 PM 30.2 °F 21.9 °F 26.6 °F 86% 30.00 in 7.0 mi NW 9.2 mph - N/A   Overcast